Location: Albany
(35.0000°S, 118.0000°E)
Time: 08:39:56
(UTC-04:00)

Cosmos 1346 Rocket - Visible Passes

Search period start: 25 October 2014 00:00
Search period end: 03 November 2014 23:00
Orbit: 529 x 570 km, 81.2° (Epoch: 25 October)

Date Brightness Start Highest point End Pass type
(mag) Time Alt. Az. Time Alt. Az. Time Alt. Az.
25 Oct 3.4 08:15:23 10° NNW 08:19:21 59° W 08:23:27 10° S visible
26 Oct 3.6 08:10:59 10° NNW 08:14:56 52° W 08:18:59 10° S visible
27 Oct 3.9 08:06:36 10° NNW 08:10:30 46° W 08:14:30 10° S visible
28 Oct 4.2 08:02:13 10° NNW 08:06:03 41° WSW 08:10:00 10° S visible
29 Oct 4.5 07:57:51 10° NW 08:01:37 36° WSW 08:05:29 10° S visible
30 Oct 4.7 07:53:29 10° NW 07:57:10 33° WSW 08:00:56 10° SSW visible
31 Oct 5.0 07:49:07 10° NW 07:52:42 29° WSW 07:56:22 10° SSW visible
01 Nov 5.3 07:44:47 10° NW 07:48:15 26° WSW 07:51:47 10° SSW visible
02 Nov 5.5 06:40:27 10° NW 06:43:47 24° WSW 06:47:11 10° SSW visible
03 Nov 5.8 06:36:08 10° NW 06:39:19 22° WSW 06:42:33 10° SSW visible
